Location: Cabrera Baja
(40.4089°N, 4.3354°W)
Time: 02:40:30
(UTC+00:00)

Cosmos 1741 Rocket - Pass Details

Date: 14 July 2020
Orbit: 761 x 783 km, 74.0° (Epoch: 03 August)

Event Time Altitude Azimuth Distance (km) Brightness Sun altitude
Exits shadow 03:04:19 25° 185° (S) 1,509 5.1 -17.5°
Maximum altitude 03:07:22 70° 106° (ESE) 808 4.1 -17.2°
Drops below altitude 10° 03:12:34 10° 24° (NNE) 2,305 7.7 -16.5°
Sets 03:14:58 0° 22° (NNE) 3,238 8.6 -16.2°
